Location: Waco, TX
(31.5480°N, 97.1670°W)
Time: 15:53:17
(UTC-05:00)

ISS - Pass Details

Date: 14 September 2019
Orbit: 411 x 421 km, 51.6° (Epoch: 17 September)

Event Time Altitude Azimuth Distance (km) Brightness Sun altitude
Rises 22:05:57 0° 225° (SW) 2,327 - -31.5°
Reaches altitude 10° 22:08:02 10° 225° (SW) 1,468 - -31.9°
Maximum altitude 22:11:19 86° 311° (NW) 414 - -32.6°
Drops below altitude 10° 22:14:38 10° 44° (NE) 1,476 - -33.2°
Sets 22:16:44 0° 45° (NE) 2,340 - -33.6°
